Regional Weather Roundup
Issued by NWS

Home | Current Version | Previous Version | Text Only | Print | Product List | Glossary Off
Versions: 1 2 3 4 5 6 7 8 9 10 11 12 13 14 15 16 17 18 19 20 21 22 23 24 25 26 27 28 29 30 31 32 33 34 35 36 37 38 39 40 41 42 43 44 45 46 47 48 49 50

000
ASUS43 KDTX 212210
RWRMI
MICHIGAN HOURLY REGIONAL WEATHER ROUNDUP
NATIONAL WEATHER SERVICE DETROIT/PONTIAC MI
ISSUED BY NATIONAL WEATHER SERVICE GRAND RAPIDS MI
600 PM EDT FRI JUL 21 2017

NOTE: "FAIR" INDICATES FEW OR NO CLOUDS BELOW 12,000 FEET WITH NO
SIGNIFICANT WEATHER AND/OR OBSTRUCTION TO VISIBILITY.

MIZ047>049-052>055-059>063-066>070-074>076-081>083-212300-
SOUTHEAST LOWER MICHIGAN

CITY           SKY/WX    TMP DP  RH WIND       PRES   REMARKS
ADRIAN         MOSUNNY   87  66  49 VRB3      29.97F
ALMA           MOSUNNY   84  67  56 S6        29.96R
ANN ARBOR      PTSUNNY   84  70  62 S6        29.95F
BAD AXE        MOSUNNY   83  60  45 CALM      29.96F
DETROIT CITY   CLOUDY    83  61  47 SE5       29.95F
DETROIT        CLOUDY    86  67  52 W7        29.96S
FLINT          MOSUNNY   86  64  47 W6        29.96S
GROSSE ILE     MOSUNNY   83  71  66 S9        29.95S
HILLSDALE      MOSUNNY   84  64  51 CALM      29.98S
HOWELL         CLOUDY    83  65  54 W5        29.98S

CITY           SKY/WX    TMP DP  RH WIND       PRES   REMARKS
JACKSON        MOSUNNY   86  64  47 SW8       29.97F
LANSING        MOSUNNY   85  63  47 W8        29.97S
MASON          CLOUDY    84  65  53 CALM      29.97R
MONROE         MOSUNNY   84  69  61 S3        29.95F
MT. CLEMENS    PTSUNNY   83  64  51 SE5       29.95S
PONTIAC        CLOUDY    84  63  49 W7        29.96S
PORT HOPE        N/A     76  66  71 SE9       29.95S
PORT HURON     PTSUNNY   84  66  54 CALM      29.96S
TRI CITIES     MOSUNNY   87  67  51 S7        29.94F HX  90
YPSILANTI      MOSUNNY   87  70  56 SW7       29.96F HX  92
$$
MIZ043>046-050>051-056>058-064>065-071>073-077>080-212300-
SOUTHWEST LOWER MICHIGAN

CITY           SKY/WX    TMP DP  RH WIND       PRES   REMARKS
BATTLE CREEK   CLOUDY    85  67  54 SW5       29.98S
BENTON HARBOR  CLOUDY    81  69  67 NW3       29.95S
BIG RAPIDS     CLOUDY    85  58  39 W3        29.96R
COLDWATER      SUNNY     86  65  48 SW5       29.97F
HOLLAND        CLOUDY    79  69  71 W6        29.98R
GRAND RAPIDS   CLOUDY    84  67  56 S8        29.96S
KALAMAZOO      CLOUDY    86  65  49 S6        29.97S
MARSHALL       CLOUDY    84  68  58 CALM      29.97S
MOUNT PLEASANT MOSUNNY   89  58  34 CALM      29.94S
MUSKEGON       CLOUDY    76  69  79 NW7       29.98R
STURGIS        SUNNY     85  67  55 SW6       29.96F
$$
MIZ016>042-212300-
NORTHERN LOWER MICHIGAN

CITY           SKY/WX    TMP DP  RH WIND       PRES   REMARKS
ALPENA         CLOUDY    78  64  61 SE9       29.95F
BEAVER ISLAND  CLOUDY    79  61  54 SW5       29.94F
BELLAIRE       PTSUNNY   82  59  45 CALM      29.94F
CADILLAC       MOSUNNY   83  65  54 NW5       29.98S
CHARLEVOIX     MOSUNNY   77  60  55 N5        29.98R
GAYLORD        PTSUNNY   83  55  38 W8        29.97F
HOUGHTON LAKE  CLOUDY    83  61  47 N8        29.97F
MANISTEE       CLOUDY    75  68  78 SW6       29.97R
OSCODA         CLOUDY    81  65  59 E6        29.93F
PELLSTON       MOSUNNY   84  61  45 W7        29.95F
TRAVERSE CITY  CLOUDY    79  67  66 N5        29.92F
LUDINGTON      CLOUDY    74  70  86 SW5       29.97F
$$
MIZ007>008-015-212300-
EASTERN UPPER MICHIGAN

CITY           SKY/WX    TMP DP  RH WIND       PRES   REMARKS
KINROSS        CLOUDY    74  52  46 N10       29.94
MACKINAC ISLAN PTSUNNY   74  65  73 SW7       29.94S
NEWBERRY       CLOUDY    74  58  56 N6        29.94F
S. S. MARIE    CLOUDY    77  53  43 NW7       29.94F
$$
MIZ004>006-011>014-085-212300-
CENTRAL UPPER MICHIGAN

CITY           SKY/WX    TMP DP  RH WIND       PRES   REMARKS
MANISTIQUE     CLOUDY    74  68  79 S5        29.93F
ESCANABA       CLOUDY    77  70  79 SE8       29.91F
MENOMINEE      PTSUNNY   82  69  64 SW5       29.92F
SAWYER-GWINN   SUNNY     72  61  68 NE7       29.96S
$$
MIZ001>003-009>011-084-212300-
WESTERN UPPER MICHIGAN

CITY           SKY/WX    TMP DP  RH WIND       PRES   REMARKS
IRON MOUNTAIN  PTSUNNY   83  65  54 S5        29.91F
HOUGHTON       SUNNY     75  56  51 E9        29.93F
COPPER HARBOR    N/A     69  51  52 SE6       29.91F
IRONWOOD       SUNNY     84  65  52 S7        29.89F
$$

ABBREVIATIONS USED IN REMARKS
   TC - TEMPERATURE IN CELSIUS
  WCI - WIND CHILL INDEX
   HX - HEAT INDEX
  VSB - VISIBILITY





USA.gov is the U.S. government's official web portal to all federal, state and local government web resources and services.